Content
SEND FEEDBACK

Daily
Averages
Monthly
Summary
United States of America

BALDWIN, MICHIGAN


Home > North America > United States > Michigan
Elevation: 820 feet     Latitude: 43 52N     Longitude: 085 50W

WEATHER
 
SELECT A DAY
Number of Records: 401,903;   Date Range: 3/2/98 - 8/28/14
 
SHARE

PRINT THIS DATA

[ ← Previous Day ]
WEATHER ALMANAC - JANUARY 31, 2013
[ Next Day → ]
[ °C ]   °F
Weather ElementAverageHighLow
Temperature19.1 °F23.9 °F (12:35 am)14.7 °F (10:34 pm)
Dewpoint12.5 °F19.6 °F (12:35 am)7.5 °F (2:15 pm)
Humidity76 %87 % (3:54 am)59 % (2:15 pm)
Barometer29.60 in29.85 in (11:54 pm)29.31 in (12:35 am)
Wind Speed14.4 mph24.2 mph (3:14 am)
Wind Gust31.1 mph (12:54 am)
Weather ElementAverage
Visibility4.9 mi
Wind DirectionWNW (293.8 °)

Weather ElementTotal
Precipitation---
Heating Degree Days45.7 (Base 65)
Averaged from 68 records on January 31, 2013
WEATHER CONDITIONS BREAKOUT
WIND DIRECTION BREAKOUT
WEATHER BY HOUR - JANUARY 31, 2013
[ °C ]   °F
Local TimeTemperatureDewpointHumidityBarometerVisibilityWind DirectionWind SpeedGust SpeedPrecipitationEventsConditions
12:35 AM23.9 °F19.6 °F84 %29.31 in4.0 miWNW (290°)20.7 mph27.6 mphSnowLight Snow
12:54 AM23.0 °F18.0 °F81 %29.32 in5.0 miWNW (300°)19.6 mph31.1 mphSnowLight Snow
1:14 AM22.8 °F18.9 °F85 %29.33 in3.0 miWNW (290°)19.6 mph26.5 mphSnowLight Snow
1:35 AM22.5 °F18.3 °F84 %29.34 in5.0 miWNW (290°)18.4 mph27.6 mphSnowLight Snow
1:54 AM22.1 °F18.0 °F84 %29.34 in4.0 miWNW (300°)19.6 mph29.9 mphSnowLight Snow
2:14 AM22.3 °F18.5 °F85 %29.36 in4.0 miWNW (290°)12.7 mphSnowLight Snow
2:35 AM22.1 °F17.8 °F83 %29.37 in5.0 miWNW (300°)17.3 mph24.2 mphSnowLight Snow
2:54 AM21.7 °F17.2 °F83 %29.37 in5.0 miWNW (290°)17.3 mph26.5 mphSnowLight Snow
3:14 AM21.2 °F16.7 °F83 %29.39 in3.0 miWNW (290°)24.2 mph31.1 mphSnowLight Snow
3:35 AM21.0 °F17.4 °F86 %29.39 in1.5 miWNW (290°)17.3 mph25.3 mphSnowLight Snow
3:54 AM20.7 °F17.4 °F87 %29.40 in2.5 miWNW (290°)15.0 mph24.2 mphSnowLight Snow
4:14 AM20.7 °F16.5 °F84 %29.40 in2.5 miWNW (290°)20.7 mph26.5 mphSnowLight Snow
4:35 AM20.7 °F16.2 °F83 %29.41 in4.0 miWNW (290°)18.4 mph24.2 mphSnowLight Snow
4:54 AM20.5 °F16.2 °F83 %29.42 in3.0 miWNW (300°)20.7 mph26.5 mphSnowLight Snow
5:14 AM20.3 °F15.8 °F83 %29.43 in2.0 miWNW (290°)17.3 mph24.2 mphSnowLight Snow
5:35 AM19.9 °F14.5 °F80 %29.45 in3.0 miWNW (300°)23.0 mph27.6 mphSnowLight Snow
5:54 AM19.4 °F13.8 °F79 %29.46 in4.0 miWNW (300°)19.6 mph31.1 mphHaze
6:14 AM19.0 °F12.7 °F76 %29.47 in7.0 miWNW (290°)16.1 mph28.8 mphOvercast
6:35 AM18.9 °F14.0 °F81 %29.47 in4.0 miWNW (300°)15.0 mph25.3 mphSnowLight Snow
6:54 AM19.0 °F14.7 °F83 %29.48 in5.0 miWNW (290°)15.0 mph21.9 mphSnowLight Snow
7:14 AM19.2 °F14.0 °F80 %29.49 in10.0 miWNW (290°)15.0 mph21.9 mphOvercast
7:35 AM19.4 °F13.5 °F78 %29.50 in7.0 miWNW (290°)15.0 mph20.7 mphSnowLight Snow
7:54 AM18.9 °F14.2 °F82 %29.51 in2.5 miWNW (300°)15.0 mph19.6 mphSnowLight Snow
8:14 AM18.9 °F14.2 °F82 %29.52 in3.0 miWNW (300°)16.1 mph25.3 mphSnowLight Snow
8:35 AM18.9 °F13.5 °F79 %29.52 in7.0 miWNW (300°)16.1 mph21.9 mphSnowLight Snow
8:54 AM19.0 °F13.1 °F78 %29.54 in5.0 miWNW (300°)15.0 mphSnowLight Snow
9:14 AM19.0 °F13.5 °F79 %29.55 in4.0 miWNW (290°)13.8 mphSnowLight Snow
9:34 AM18.7 °F14.0 °F82 %29.56 in1.8 miWest (280°)10.4 mphSnowLight Snow
9:54 AM18.9 °F14.2 °F82 %29.58 in3.0 miWNW (290°)10.4 mphSnowLight Snow
10:34 AM19.2 °F13.3 °F78 %29.59 in1.0 miWNW (300°)13.8 mphSnowLight Snow
10:54 AM19.4 °F11.8 °F72 %29.60 in5.0 miNW (310°)15.0 mphSnowLight Snow
11:14 AM19.9 °F10.8 °F68 %29.61 in7.0 miWNW (300°)15.0 mph18.4 mphSnowLight Snow
11:34 AM19.9 °F11.3 °F69 %29.62 in2.5 miWNW (300°)15.0 mph21.9 mphSnowLight Snow
11:59 AM19.4 °F10.4 °F68 %29.62 in4.0 miWNW (300°)15.0 mph21.9 mphSnowLight Snow
12:14 PM19.2 °F13.3 °F78 %29.62 in0.2 miWNW (300°)8.1 mphSnowSnow
12:35 PM21.0 °F9.5 °F61 %29.62 in7.0 miWNW (300°)17.3 mph21.9 mphOvercast
12:54 PM19.9 °F9.5 °F64 %29.62 in7.0 miWNW (290°)18.4 mph24.2 mphSnowLight Snow
1:14 PM19.9 °F10.0 °F65 %29.63 in3.0 miWest (280°)19.6 mph24.2 mphSnowLight Snow
1:34 PM19.8 °F9.3 °F64 %29.64 in7.0 miWNW (300°)17.3 mph25.3 mphOvercast
1:54 PM20.1 °F8.6 °F61 %29.64 in5.0 miWNW (300°)20.7 mph25.3 mphSnowLight Snow
2:15 PM19.9 °F7.5 °F59 %29.65 in7.0 miWNW (290°)20.7 mph25.3 mphOvercast
2:34 PM19.6 °F8.8 °F63 %29.66 in10.0 miWNW (290°)17.3 mphOvercast
2:54 PM19.8 °F9.3 °F64 %29.67 in10.0 miWNW (300°)16.1 mphOvercast
3:14 PM18.7 °F9.3 °F67 %29.67 in10.0 miWest (280°)16.1 mph23.0 mphOvercast
3:34 PM19.4 °F8.6 °F63 %29.68 in10.0 miWest (280°)15.0 mph21.9 mphOvercast
3:55 PM19.2 °F8.6 °F63 %29.69 in10.0 miWest (280°)17.3 mph20.7 mphOvercast
4:14 PM19.0 °F8.6 °F64 %29.69 in10.0 miWNW (290°)16.1 mphOvercast
4:34 PM18.9 °F10.2 °F69 %29.70 in5.0 miNW (310°)10.4 mphSnowLight Snow
4:54 PM18.7 °F10.6 °F71 %29.71 in4.0 miWNW (290°)12.7 mph19.6 mphSnowLight Snow
5:14 PM18.1 °F9.9 °F70 %29.72 in7.0 miWest (280°)13.8 mph18.4 mphOvercast
5:34 PM17.6 °F9.5 °F71 %29.72 in10.0 miWNW (290°)10.4 mphOvercast
5:54 PM17.6 °F10.4 °F73 %29.73 in7.0 miWNW (300°)8.1 mphOvercast
6:14 PM17.4 °F10.9 °F76 %29.74 in4.0 miWNW (300°)9.2 mphSnowLight Snow
6:34 PM17.2 °F10.2 °F74 %29.75 in5.0 miWNW (290°)11.5 mphSnowLight Snow
6:54 PM16.7 °F10.4 °F76 %29.76 in7.0 miWest (280°)9.2 mphSnowLight Snow
7:14 PM16.7 °F10.4 °F76 %29.76 in5.0 miWest (280°)9.2 mphSnowLight Snow
7:34 PM16.5 °F10.4 °F77 %29.77 in4.0 miWest (280°)9.2 mphSnowLight Snow
7:54 PM16.3 °F10.2 °F77 %29.78 in5.0 miWest (280°)8.1 mphSnowLight Snow
8:14 PM16.3 °F10.8 °F79 %29.78 in3.0 miWest (280°)8.1 mphSnowLight Snow
8:34 PM16.5 °F11.3 °F80 %29.79 in1.5 miWest (280°)5.8 mphSnowLight Snow
9:14 PM16.7 °F11.5 °F80 %29.80 in2.0 miWNW (290°)11.5 mphSnowLight Snow
9:34 PM17.1 °F12.0 °F81 %29.81 in0.5 miWNW (290°)8.1 mphSnowLight Snow
9:54 PM16.9 °F12.0 °F81 %29.81 in1.0 miWNW (290°)4.6 mphSnowSnow
10:14 PM15.8 °F11.3 °F82 %29.82 in1.5 miNW (310°)4.6 mphSnowLight Snow
10:34 PM14.7 °F9.5 °F80 %29.82 in5.0 miNW (310°)6.9 mphSnowLight Snow
11:14 PM15.8 °F8.4 °F73 %29.83 in10.0 miNNW (330°)12.7 mphMostly Cloudy
11:34 PM15.6 °F9.0 °F75 %29.84 in2.5 miNW (320°)8.1 mphSnowLight Snow
11:54 PM14.9 °F9.1 °F78 %29.85 in5.0 miWNW (300°)10.4 mphSnowLight Snow
Hourly data recorded from KRQB, located miles away from Baldwin, Michigan







STORIES FROM OUR PARTNERS